Weather History for Abbotsford, BC

Change the Weather History Date:

Sunday, December 16, 2012

  Actual Average Record
Temperature  
Mean Temperature 36 °F -  
Max Temperature 40 °F 42 °F 53 °F (2001)
Min Temperature 33 °F 30 °F 17 °F (2008)
Degree Days  
Heating Degree Days 28    
Moisture  
Dew Point 35 °F    
Average Humidity 89    
Maximum Humidity 100    
Minimum Humidity 81    
Precipitation  
Precipitation 0.43 in 0.27 in - ()
Sea Level Pressure  
Sea Level Pressure 29.46 in    
Wind  
Wind Speed 9 mph ()    
Max Wind Speed 14 mph    
Max Gust Speed 21 mph    
Visibility 10.8 miles    
Events Rain , Snow    
Averages and records for this station are not official NWS values.
T = Trace of Precipitation, MM = Missing Value Source: Averaged Metar Reports

Daily Weather History Graph

Daily Weather History Graph

Search for Another Location

Airport:

Trip Planner

Search our weather history database for the weather conditions in past years. The results will help you decide how hot, cold, wet, or windy it might be!

Date:

Astronomy

Dec. 16, 2012 Rise Set
Actual Time 7:58 AM PST 4:12 PM PST
Civil Twilight 7:20 AM PST 4:50 PM PST
Nautical Twilight 6:40 AM PST 5:30 PM PST
Astronomical Twilight 6:01 AM PST 6:09 PM PST
Moon 10:18 AM PST (12/16) 8:51 PM PST (12/16)
Length of Visible Light 9h 29m
Length of Day
8h 14m
Waxing Crescent, 17% of the Moon is Illuminated
Dec 16
Waxing Crescent
Dec 19
First Quarter
Dec 28
Full
Jan 4
Last Quarter
Jan 11
New

Hourly Weather History & Observations

Time (PST) Temp. Windchill Dew Point Humidity Pressure Visibility Wind Dir Wind Speed Gust Speed Precip Events Conditions
12:00 AM 39.2 °F 32.5 °F 37.4 °F 93% 29.62 in 7.0 mi South 10.4 mph - N/A Rain Light Rain Showers
1:00 AM 39.2 °F 33.0 °F 35.6 °F 87% 29.64 in 10.0 mi South 9.2 mph - N/A   Overcast
2:00 AM 39.2 °F 32.5 °F 35.6 °F 87% 29.65 in 15.0 mi South 10.4 mph - N/A   Overcast
3:00 AM 39.2 °F 32.0 °F 35.6 °F 87% 29.68 in 8.0 mi South 11.5 mph 18.4 mph N/A Rain Light Rain Showers
4:00 AM 38 °F - 36 °F 88% 29.68 in 10 mi South 11.5 mph - - Rain Light Rain Showers
4:00 AM 37.4 °F 28.9 °F 35.6 °F 93% 29.68 in 10.0 mi South 13.8 mph - N/A Rain Light Rain Showers
5:00 AM 35.6 °F 28.0 °F 33.8 °F 93% 29.68 in 10.0 mi South 10.4 mph - N/A Rain Light Rain Showers
6:00 AM 37.4 °F 28.9 °F 33.8 °F 87% 29.68 in 15.0 mi South 13.8 mph - N/A Rain Light Rain Showers
6:26 AM 37.4 °F 29.3 °F 33.8 °F 87% 29.69 in 15.0 mi South 12.7 mph - N/A   Overcast
7:00 AM 37.4 °F 28.9 °F 33.8 °F 87% 29.69 in 15.0 mi South 13.8 mph 20.7 mph N/A   Overcast
8:00 AM 37.4 °F 28.9 °F 33.8 °F 87% 29.69 in 15.0 mi South 13.8 mph - N/A   Mostly Cloudy
9:00 AM 37.4 °F 29.3 °F 33.8 °F 87% 29.70 in 15.0 mi South 12.7 mph - N/A   Overcast
9:26 AM 37.4 °F 30.3 °F 35.6 °F 93% 29.70 in 15.0 mi SSW 10.4 mph - N/A Rain Light Rain
10:00 AM 38 °F - 36 °F 88% 29.70 in 15 mi SSW 9.2 mph - - Rain Light Rain
10:00 AM 37.4 °F 30.8 °F 35.6 °F 93% 29.70 in 15.0 mi SW 9.2 mph - N/A Rain Light Rain
11:00 AM 39.2 °F 35.9 °F 35.6 °F 87% 29.68 in 20.0 mi SSW 4.6 mph - N/A   Overcast
12:00 PM 39.2 °F - 35.6 °F 87% 29.63 in 20.0 mi Calm Calm - N/A   Overcast
1:00 PM 41.0 °F 38.0 °F 35.6 °F 81% 29.58 in 25.0 mi NE 4.6 mph - N/A   Overcast
2:00 PM 39.2 °F 34.2 °F 35.6 °F 87% 29.52 in 15.0 mi NE 6.9 mph - N/A   Overcast
2:27 PM 39.2 °F 33.6 °F 33.8 °F 81% 29.50 in 10.0 mi East 8.1 mph - N/A Rain Light Rain Showers
3:00 PM 39.2 °F 33.6 °F 33.8 °F 81% 29.47 in 10.0 mi ENE 8.1 mph - N/A Rain Light Rain Showers
4:00 PM 38 °F - 35 °F 85% 29.39 in 10 mi ENE 4.6 mph - - Rain Light Rain Showers
4:00 PM 37.4 °F 34.9 °F 35.6 °F 93% 29.39 in 10.0 mi ENE 3.5 mph - N/A Rain Light Rain Showers
5:00 PM 37.4 °F 31.4 °F 33.8 °F 87% 29.28 in 10.0 mi ENE 8.1 mph - N/A Rain Light Rain Showers
6:00 PM 37.4 °F 29.8 °F 33.8 °F 87% 29.20 in 8.0 mi ENE 11.5 mph 19.6 mph N/A Rain Light Rain
7:00 PM 37.4 °F 29.3 °F 33.8 °F 87% 29.11 in 8.0 mi NE 12.7 mph 19.6 mph N/A Rain Light Rain
8:00 PM 37.4 °F 30.8 °F 33.8 °F 87% 29.06 in 6.0 mi ENE 9.2 mph - N/A Rain Light Rain
9:00 PM 35.6 °F 26.6 °F 33.8 °F 93% 29.04 in 4.0 mi ENE 13.8 mph 19.6 mph N/A Rain , Snow Light Rain
10:00 PM 35 °F - 34 °F 92% 29.03 in 4 mi ENE 9.2 mph - - Rain Light Rain
10:00 PM 35.6 °F 29.2 °F 33.8 °F 93% 29.03 in 4.0 mi ENE 8.1 mph - N/A Rain Rain
10:32 PM 35.6 °F 28.6 °F 33.8 °F 93% 29.02 in 4.0 mi ENE 9.2 mph - N/A Rain , Snow Rain
11:00 PM 35.6 °F 28.6 °F 33.8 °F 93% 29.02 in 7.0 mi East 9.2 mph - N/A Rain Light Rain
11:34 PM 33.8 °F 26.4 °F 33.8 °F 100% 29.01 in 7.0 mi ENE 9.2 mph - N/A Rain , Snow Rain